This is the latest recevied weather packets stored in our database for station/object N5SRF. If no packets are shown the sender has not sent any weather packets the latest 10 day(s).
| Time | Temp. | Humidity | Pressure | Rain* | Wind** | Luminosity | Snow |
|---|---|---|---|---|---|---|---|
| 1778021989 | 27.78° C | 83% | 1010.8 hPa | 0 mm | - | 91 W/m² | - |
| 1778021686 | 27.78° C | 83% | 1010.6 hPa | 0 mm | - | 68 W/m² | - |
| 1778021382 | 28.33° C | 81% | 1010.6 hPa | 0 mm | - | 143 W/m² | - |
| 1778021079 | 28.33° C | 81% | 1010.7 hPa | 0 mm | - | 137 W/m² | - |
| 1778020776 | 28.33° C | 80% | 1010.6 hPa | 0 mm | - | 110 W/m² | - |
| 1778020473 | 28.33° C | 79% | 1010.7 hPa | 0 mm | - | 151 W/m² | - |
| 1778020169 | 28.33° C | 80% | 1010.7 hPa | 0 mm | - | 206 W/m² | - |
| 1778019866 | 28.89° C | 79% | 1011.1 hPa | 0 mm | - | 143 W/m² | - |
| 1778019562 | 28.89° C | 80% | 1010.6 hPa | 0 mm | - | 181 W/m² | - |
| 1778019259 | 28.89° C | 79% | 1010.7 hPa | 0 mm | - | 139 W/m² | - |
| 1778018956 | 28.33° C | 81% | 1010.8 hPa | 0 mm | - | 280 W/m² | - |
| 1778018653 | 28.89° C | 80% | 1010.8 hPa | 0 mm | - | 152 W/m² | - |
| 1778018351 | 28.33° C | 79% | 1010.7 hPa | 0 mm | - | 406 W/m² | - |
| 1778018049 | 28.33° C | 80% | 1010.8 hPa | 0 mm | - | 207 W/m² | - |
| 1778017747 | 28.33° C | 80% | 1010.9 hPa | 0 mm | - | 157 W/m² | - |
| 1778017444 | 28.33° C | 80% | 1011 hPa | 0 mm | - | 186 W/m² | - |
| 1778017141 | 28.33° C | 80% | 1011 hPa | 0 mm | - | 226 W/m² | - |
| 1778016839 | 28.33° C | 80% | 1011.3 hPa | 0 mm | - | 219 W/m² | - |
| 1778016534 | 28.89° C | 78% | 1011.1 hPa | 0 mm | - | 86 W/m² | - |
| 1778016232 | 29.44° C | 76% | 1011 hPa | 0 mm | - | 160 W/m² | - |
| 1778015928 | 29.44° C | 76% | 1011 hPa | 0 mm | - | 544 W/m² | - |
| 1778015625 | 29.44° C | 75% | 1010.9 hPa | 0 mm | - | 291 W/m² | - |
| 1778015322 | 29.44° C | 77% | 1011.2 hPa | 0 mm | - | 312 W/m² | - |
| 1778015019 | 29.44° C | 77% | 1011.3 hPa | 0 mm | - | 408 W/m² | - |
| 1778014715 | 29.44° C | 78% | 1011.3 hPa | 0 mm | - | 553 W/m² | - |
* Rain latest hour (hover to see other rain measurements)
** Current wind speed in m/s (hover to see current wind gust speed)